DELTA 1 DEB

Satellite information

Favourite Embed

Satellite Type and Status

DEBRISIN ORBIT

Key statistics

Satellite DELTA 1 DEB at a glance.

Uptime

17451

Days in orbit

Revolutions

≈ 14.2

Per day

Orbit

SSO

Sun Synchronous Orbit

Inclination

99.1

Latest

Satellite identification and parameters

Extended collection of information and parameters for DELTA 1 DEB.

Object identification

Identified? True

Debris? True

Object name: DELTA 1 DEB

International designator: 1978-026FG

Object number (NORAD): 13569

Object ID (CCSDS): 13569

Country: UNITED STATES OF AMERICA (US)

Current information (Y/N): Y

RCS size: SMALL

Orbital parameters

Period: 101.382 minutes

Inclination: 99.0752 deg

SMA: 7202.243 km

Apoapsis: 893.744 km

Periapsis: 754.471 km

RAAN: 79.9018 deg

Eccentricy: 0.00966866

Argument of periapsis: 33.2907 deg

Mean anomaly: 357.0684 deg

Mean motion: 14.20368887 rev/day

Mean motion (dot): 0.00003595 rev/day2

B* drag term: 0.0016213548 1/REarth

Two-line elements (TLE)

Creation date: Dec. 11, 2025, 10:54 a.m.

Reference frame: TEME

Reference center: EARTH

Epoch: Dec. 11, 2025, 5:05 a.m. UTC

TLE line 0: 0 DELTA 1 DEB

TLE line 1: 1 13569U 78026FG 25345.21214619 .00003595 00000-0 16214-2 0 9990

TLE line 2: 2 13569 99.0752 79.9018 0096687 33.2907 357.0684 14.20368887256533

Live tracking on map

Real-time ground track for satellite DELTA 1 DEB.

In-orbit conjunctions

A list of the most updated potential collisions computed for object DELTA 1 DEB.

Target Orbit TCA Probability of collision Miss distance Type
DELTA 1 R/B SSO 2025-05-08 00:47:22 0.0006829788 272.0 (m) ROCKET BODY
CZ-6A DEB SSO 2024-11-12 19:31:44 0.000150235 170.0 (m) DEBRIS
COSMOS 1412 LEO 2024-10-06 07:03:15 0.0001132831 932.0 (m) PAYLOAD

Associated space launch

Earth observation satellite

DELTA 1 DEB was lifted into orbit during the mission ‘Delta 2910 | Landsat 3’, on board a Delta 2910 space rocket.

The launch took place on March 5, 1978, 5:54 p.m. from Space Launch Complex 2W.

For more information about the launch, click the button.

Launch to space Delta 2910 | Landsat 3
Delta 2910 | Landsat 3

Agency: N/A

Status: Launch Successful

Launch date: March 5, 1978, 5:54 p.m. UTC

Rocket: Delta 2910

Launch pad: Space Launch Complex 2W

Location: Vandenberg SFB, CA, USA

...

Latest news about this satellite

There are no fresh news available about this satellite. Check back as we update our databases every day.


Newsletter sign-up

Weekly statistics, charts and insights to help you stay on top of the space industry.